Time,TemperatureF,DewpointF,PressureIn,WindDirection,WindDirectionDegrees,WindSpeedMPH,WindSpeedGustMPH,Humidity,HourlyPrecipIn,Conditions,Clouds,dailyrainin,SoftwareType,DateUTC
2013-05-20 00:03:00,48.0,45.0,29.81,WNW,293,3.0,7.0,88,0.00,,,0.01,,2013-05-20 04:03:00,
2013-05-20 00:13:00,48.0,45.0,29.81,WNW,293,3.0,7.0,88,0.00,,,0.01,,2013-05-20 04:13:00,
2013-05-20 00:23:00,48.0,44.0,29.82,NW,315,3.0,9.0,87,0.00,,,0.01,,2013-05-20 04:23:00,
2013-05-20 00:33:00,48.0,44.0,29.82,NNW,335,2.0,7.0,87,0.00,,,0.01,,2013-05-20 04:33:00,
2013-05-20 00:42:00,48.0,44.0,29.82,NNW,335,2.0,7.0,87,0.00,,,0.01,,2013-05-20 04:42:00,
2013-05-20 00:52:00,48.0,45.0,29.82,NW,311,3.0,10.0,88,0.00,,,0.01,,2013-05-20 04:52:00,
2013-05-20 01:02:00,48.0,45.0,29.82,NNW,327,1.0,10.0,88,0.00,,,0.01,,2013-05-20 05:02:00,
2013-05-20 01:12:00,48.0,45.0,29.82,NNW,327,1.0,10.0,88,0.00,,,0.01,,2013-05-20 05:12:00,
2013-05-20 01:22:00,48.0,45.0,29.82,NW,320,1.0,7.0,89,0.00,,,0.01,,2013-05-20 05:22:00,
2013-05-20 01:32:00,47.0,45.0,29.81,NW,313,3.0,8.0,91,0.00,,,0.01,,2013-05-20 05:32:00,
2013-05-20 01:42:00,47.0,45.0,29.81,NW,313,3.0,8.0,91,0.00,,,0.01,,2013-05-20 05:42:00,
2013-05-20 01:51:00,47.0,45.0,29.82,NW,309,4.0,9.0,93,0.00,,,0.01,,2013-05-20 05:51:00,
2013-05-20 02:01:00,47.0,45.0,29.82,NW,324,4.0,9.0,94,0.00,,,0.01,,2013-05-20 06:01:00,
2013-05-20 02:11:00,47.0,45.0,29.82,NW,324,4.0,9.0,94,0.00,,,0.01,,2013-05-20 06:11:00,
2013-05-20 02:21:00,46.0,45.0,29.81,NW,321,4.0,9.0,95,0.00,,,0.01,,2013-05-20 06:21:00,
2013-05-20 02:32:00,46.0,45.0,29.80,North,360,3.0,6.0,95,0.00,,,0.01,,2013-05-20 06:32:00,
2013-05-20 02:42:00,46.0,45.0,29.80,North,360,3.0,6.0,95,0.00,,,0.01,,2013-05-20 06:42:00,
2013-05-20 02:52:00,46.0,45.0,29.80,North,9,1.0,7.0,95,0.00,,,0.01,,2013-05-20 06:52:00,
2013-05-20 03:02:00,45.0,44.0,29.80,North,351,1.0,5.0,96,0.00,,,0.01,,2013-05-20 07:02:00,
2013-05-20 03:12:00,45.0,44.0,29.80,North,351,1.0,5.0,96,0.00,,,0.01,,2013-05-20 07:12:00,
2013-05-20 03:21:00,45.0,44.0,29.79,NNE,12,2.0,7.0,96,0.00,,,0.01,,2013-05-20 07:21:00,
2013-05-20 03:32:00,44.0,43.0,29.79,NNE,13,2.0,5.0,96,0.00,,,0.01,,2013-05-20 07:32:00,
2013-05-20 03:42:00,44.0,43.0,29.79,NNE,13,2.0,5.0,96,0.00,,,0.01,,2013-05-20 07:42:00,
2013-05-20 03:52:00,44.0,43.0,29.79,NNE,13,1.0,5.0,95,0.00,,,0.01,,2013-05-20 07:52:00,
2013-05-20 04:01:00,43.0,42.0,29.79,NNE,13,1.0,4.0,95,0.00,,,0.01,,2013-05-20 08:01:00,
2013-05-20 04:21:00,43.0,42.0,29.79,NNW,347,0.0,4.0,95,0.00,,,0.01,,2013-05-20 08:21:00,
2013-05-20 04:32:00,43.0,42.0,29.78,NNW,348,1.0,5.0,95,0.00,,,0.01,,2013-05-20 08:32:00,
2013-05-20 04:41:00,43.0,42.0,29.78,NNW,348,1.0,5.0,95,0.00,,,0.01,,2013-05-20 08:41:00,
2013-05-20 04:51:00,43.0,42.0,29.78,WNW,283,0.0,6.0,95,0.00,,,0.01,,2013-05-20 08:51:00,
2013-05-20 05:02:00,44.0,43.0,29.78,NW,305,2.0,5.0,95,0.00,,,0.01,,2013-05-20 09:02:00,
2013-05-20 05:12:00,44.0,43.0,29.78,NW,305,2.0,5.0,95,0.00,,,0.01,,2013-05-20 09:12:00,
2013-05-20 05:21:00,44.0,42.0,29.78,WNW,301,2.0,5.0,94,0.00,,,0.01,,2013-05-20 09:21:00,
2013-05-20 05:32:00,45.0,43.0,29.78,NNW,329,1.0,6.0,93,0.00,,,0.01,,2013-05-20 09:32:00,
2013-05-20 05:43:00,45.0,43.0,29.78,NNW,329,1.0,6.0,93,0.00,,,0.01,,2013-05-20 09:43:00,
2013-05-20 05:52:00,45.0,43.0,29.78,NNW,328,1.0,5.0,92,0.00,,,0.01,,2013-05-20 09:52:00,
2013-05-20 06:03:00,45.0,43.0,29.77,NNW,328,2.0,5.0,92,0.00,,,0.01,,2013-05-20 10:03:00,
2013-05-20 06:12:00,45.0,43.0,29.77,NNW,328,2.0,5.0,92,0.00,,,0.01,,2013-05-20 10:12:00,
2013-05-20 06:22:00,45.0,43.0,29.76,NW,323,2.0,7.0,92,0.00,,,0.01,,2013-05-20 10:22:00,
2013-05-20 06:32:00,45.0,43.0,29.75,NW,325,1.0,6.0,92,0.00,,,0.01,,2013-05-20 10:32:00,
2013-05-20 06:42:00,45.0,43.0,29.75,NW,325,1.0,6.0,92,0.00,,,0.01,,2013-05-20 10:42:00,
2013-05-20 06:52:00,45.0,43.0,29.77,SW,218,0.0,4.0,93,0.16,,,0.17,,2013-05-20 10:52:00,
2013-05-20 07:02:00,46.0,44.0,29.77,West,267,0.0,5.0,94,0.20,,,0.21,,2013-05-20 11:02:00,
2013-05-20 07:12:00,46.0,44.0,29.77,West,267,0.0,5.0,94,0.20,,,0.21,,2013-05-20 11:12:00,
2013-05-20 07:21:00,46.0,45.0,29.74,West,278,1.0,4.0,95,0.20,,,0.21,,2013-05-20 11:21:00,
2013-05-20 07:32:00,45.0,44.0,29.71,NNE,19,3.0,5.0,95,0.20,,,0.21,,2013-05-20 11:32:00,
2013-05-20 07:42:00,45.0,44.0,29.71,NNE,19,3.0,5.0,95,0.20,,,0.21,,2013-05-20 11:42:00,
2013-05-20 07:51:00,43.0,42.0,29.69,NE,34,4.0,8.0,95,0.02,,,0.21,,2013-05-20 11:51:00,
2013-05-20 08:01:00,43.0,42.0,29.74,ENE,57,0.0,3.0,96,0.00,,,0.21,,2013-05-20 12:01:00,
2013-05-20 08:11:00,43.0,42.0,29.74,ENE,57,0.0,3.0,96,0.00,,,0.21,,2013-05-20 12:11:00,
2013-05-20 08:21:00,44.0,43.0,29.70,NE,55,0.0,4.0,96,0.00,,,0.21,,2013-05-20 12:21:00,
2013-05-20 08:32:00,45.0,44.0,29.70,WNW,285,2.0,5.0,96,0.00,,,0.21,,2013-05-20 12:32:00,
2013-05-20 08:41:00,45.0,44.0,29.70,WNW,285,2.0,5.0,96,0.00,,,0.21,,2013-05-20 12:41:00,
2013-05-20 08:52:00,46.0,45.0,29.70,NW,323,1.0,6.0,96,0.00,,,0.21,,2013-05-20 12:52:00,
2013-05-20 09:01:00,47.0,46.0,29.71,WNW,288,1.0,6.0,97,0.00,,,0.21,,2013-05-20 13:01:00,
2013-05-20 09:11:00,47.0,46.0,29.71,WNW,288,1.0,6.0,97,0.00,,,0.21,,2013-05-20 13:11:00,
2013-05-20 09:22:00,48.0,47.0,29.71,NNW,348,2.0,5.0,96,0.00,,,0.21,,2013-05-20 13:22:00,
2013-05-20 09:31:00,49.0,48.0,29.71,NNW,344,0.0,5.0,96,0.01,,,0.22,,2013-05-20 13:31:00,
2013-05-20 09:41:00,49.0,48.0,29.71,NNW,344,0.0,5.0,96,0.01,,,0.22,,2013-05-20 13:41:00,
2013-05-20 09:52:00,49.0,47.0,29.72,NNW,344,0.0,4.0,94,0.01,,,0.22,,2013-05-20 13:52:00,
2013-05-20 10:01:00,50.0,48.0,29.72,NNW,344,0.0,2.0,93,0.01,,,0.22,,2013-05-20 14:01:00,
2013-05-20 10:11:00,50.0,48.0,29.72,NNW,344,0.0,2.0,93,0.01,,,0.22,,2013-05-20 14:11:00,
2013-05-20 10:22:00,51.0,48.0,29.72,NNE,19,2.0,4.0,91,0.01,,,0.22,,2013-05-20 14:22:00,
2013-05-20 10:32:00,50.0,46.0,29.72,NNE,25,0.0,4.0,87,0.00,,,0.22,,2013-05-20 14:32:00,
2013-05-20 10:42:00,50.0,46.0,29.72,NNE,25,0.0,4.0,87,0.00,,,0.22,,2013-05-20 14:42:00,
2013-05-20 10:52:00,50.0,46.0,29.74,NNE,25,0.0,1.0,86,0.00,,,0.22,,2013-05-20 14:52:00,
2013-05-20 11:01:00,51.0,48.0,29.72,NNE,25,0.0,3.0,88,0.00,,,0.22,,2013-05-20 15:01:00,
2013-05-20 11:11:00,51.0,48.0,29.72,NNE,25,0.0,3.0,88,0.00,,,0.22,,2013-05-20 15:11:00,
2013-05-20 11:21:00,50.0,47.0,29.73,WSW,250,0.0,5.0,90,0.00,,,0.22,,2013-05-20 15:21:00,
2013-05-20 11:33:00,50.0,48.0,29.72,WSW,250,0.0,3.0,92,0.00,,,0.22,,2013-05-20 15:33:00,
2013-05-20 11:42:00,50.0,48.0,29.72,WSW,250,0.0,3.0,92,0.00,,,0.22,,2013-05-20 15:42:00,
2013-05-20 11:53:00,52.0,50.0,29.72,WSW,250,0.0,2.0,94,0.01,,,0.23,,2013-05-20 15:53:00,
2013-05-20 12:03:00,53.0,49.0,29.72,NNE,20,1.0,4.0,87,0.01,,,0.23,,2013-05-20 16:03:00,
2013-05-20 12:12:00,53.0,49.0,29.72,NNE,20,1.0,4.0,87,0.01,,,0.23,,2013-05-20 16:12:00,
2013-05-20 12:22:00,54.0,49.0,29.72,NNE,20,1.0,4.0,82,0.01,,,0.23,,2013-05-20 16:22:00,
2013-05-20 12:33:00,52.0,46.0,29.72,NNE,20,1.0,4.0,79,0.01,,,0.23,,2013-05-20 16:33:00,
2013-05-20 12:42:00,52.0,46.0,29.72,NNE,20,1.0,4.0,79,0.01,,,0.23,,2013-05-20 16:42:00,
2013-05-20 12:52:00,50.0,45.0,29.72,NNE,20,2.0,5.0,83,0.00,,,0.23,,2013-05-20 16:52:00,
2013-05-20 13:02:00,50.0,47.0,29.71,NNE,20,1.0,5.0,88,0.00,,,0.23,,2013-05-20 17:02:00,
2013-05-20 13:12:00,50.0,47.0,29.71,NNE,20,1.0,5.0,88,0.00,,,0.23,,2013-05-20 17:12:00,
2013-05-20 13:22:00,51.0,48.0,29.72,NNE,21,0.0,4.0,90,0.00,,,0.23,,2013-05-20 17:22:00,
2013-05-20 13:33:00,51.0,48.0,29.70,NNE,20,0.0,3.0,89,0.00,,,0.23,,2013-05-20 17:33:00,
2013-05-20 13:45:00,51.0,48.0,29.70,NNE,20,0.0,3.0,89,0.00,,,0.23,,2013-05-20 17:45:00,
2013-05-20 13:53:00,52.0,49.0,29.70,NNE,21,0.0,4.0,90,0.00,,,0.23,,2013-05-20 17:53:00,
2013-05-20 14:02:00,53.0,49.0,29.69,NNE,21,2.0,4.0,86,0.00,,,0.23,,2013-05-20 18:02:00,
2013-05-20 14:12:00,53.0,49.0,29.69,NNE,21,2.0,4.0,86,0.00,,,0.23,,2013-05-20 18:12:00,
2013-05-20 14:23:00,52.0,48.0,29.70,NNE,20,0.0,5.0,86,0.00,,,0.23,,2013-05-20 18:23:00,
2013-05-20 14:32:00,51.0,48.0,29.71,NNE,21,1.0,5.0,88,0.00,,,0.23,,2013-05-20 18:32:00,
2013-05-20 14:42:00,51.0,48.0,29.71,NNE,21,1.0,5.0,88,0.00,,,0.23,,2013-05-20 18:42:00,
2013-05-20 14:55:00,49.0,46.0,29.71,NNE,21,2.0,4.0,89,0.00,,,0.23,,2013-05-20 18:55:00,
2013-05-20 15:04:00,48.0,45.0,29.71,NNE,21,0.0,5.0,90,0.00,,,0.23,,2013-05-20 19:04:00,
2013-05-20 15:11:00,48.0,45.0,29.71,NNE,21,0.0,5.0,90,0.00,,,0.23,,2013-05-20 19:11:00,
2013-05-20 15:21:00,49.0,47.0,29.70,NNE,20,1.0,4.0,92,0.00,,,0.23,,2013-05-20 19:21:00,
2013-05-20 15:32:00,50.0,48.0,29.69,NNE,16,2.0,5.0,93,0.00,,,0.23,,2013-05-20 19:32:00,
2013-05-20 15:41:00,50.0,48.0,29.69,NNE,16,2.0,5.0,93,0.00,,,0.23,,2013-05-20 19:41:00,
2013-05-20 15:52:00,51.0,48.0,29.68,NNW,348,1.0,4.0,89,0.00,,,0.23,,2013-05-20 19:52:00,
2013-05-20 16:01:00,53.0,49.0,29.68,NNE,28,3.0,6.0,85,0.00,,,0.23,,2013-05-20 20:01:00,
2013-05-20 16:12:00,53.0,49.0,29.68,NNE,28,3.0,6.0,85,0.00,,,0.23,,2013-05-20 20:12:00,
2013-05-20 16:21:00,52.0,47.0,29.68,NNE,25,3.0,7.0,84,0.00,,,0.23,,2013-05-20 20:21:00,
2013-05-20 16:32:00,51.0,47.0,29.68,NE,37,3.0,7.0,87,0.00,,,0.23,,2013-05-20 20:32:00,
2013-05-20 16:42:00,51.0,47.0,29.68,NE,37,3.0,7.0,87,0.00,,,0.23,,2013-05-20 20:42:00,
2013-05-20 16:51:00,51.0,46.0,29.68,NNE,24,3.0,8.0,83,0.00,,,0.23,,2013-05-20 20:51:00,
2013-05-20 17:01:00,50.0,46.0,29.68,NNE,28,3.0,7.0,85,0.00,,,0.23,,2013-05-20 21:01:00,
2013-05-20 17:11:00,50.0,46.0,29.68,NNE,28,3.0,7.0,85,0.00,,,0.23,,2013-05-20 21:11:00,
2013-05-20 17:21:00,49.0,45.0,29.69,NNE,29,5.0,8.0,86,0.00,,,0.23,,2013-05-20 21:21:00,
2013-05-20 17:33:00,48.0,45.0,29.68,NNE,22,3.0,6.0,88,0.00,,,0.23,,2013-05-20 21:33:00,
2013-05-20 17:43:00,48.0,45.0,29.68,NNE,24,3.0,7.0,90,0.00,,,0.23,,2013-05-20 21:43:00,
2013-05-20 17:53:00,48.0,45.0,29.68,NNE,24,3.0,7.0,90,0.00,,,0.23,,2013-05-20 21:53:00,
2013-05-20 18:02:00,47.0,45.0,29.69,NNE,18,3.0,8.0,92,0.00,,,0.23,,2013-05-20 22:02:00,
2013-05-20 18:12:00,47.0,45.0,29.69,NNE,18,3.0,8.0,92,0.00,,,0.23,,2013-05-20 22:12:00,
2013-05-20 18:23:00,47.0,45.0,29.69,NNE,24,2.0,7.0,93,0.00,,,0.23,,2013-05-20 22:23:00,
2013-05-20 18:33:00,47.0,45.0,29.69,NNE,15,2.0,6.0,93,0.00,,,0.23,,2013-05-20 22:33:00,
2013-05-20 18:42:00,47.0,45.0,29.69,NNE,15,2.0,6.0,93,0.00,,,0.23,,2013-05-20 22:42:00,
2013-05-20 18:52:00,47.0,45.0,29.69,NNW,346,3.0,6.0,94,0.00,,,0.23,,2013-05-20 22:52:00,
2013-05-20 19:03:00,47.0,45.0,29.68,North,360,1.0,4.0,94,0.00,,,0.23,,2013-05-20 23:03:00,
2013-05-20 19:12:00,47.0,45.0,29.68,North,360,1.0,4.0,94,0.00,,,0.23,,2013-05-20 23:12:00,
2013-05-20 19:22:00,47.0,45.0,29.68,North,351,1.0,5.0,93,0.00,,,0.23,,2013-05-20 23:22:00,
2013-05-20 19:32:00,48.0,46.0,29.67,North,351,0.0,4.0,93,0.00,,,0.22,,2013-05-20 23:32:00,
2013-05-20 19:42:00,48.0,46.0,29.67,North,351,0.0,4.0,93,0.00,,,0.22,,2013-05-20 23:42:00,
2013-05-20 19:52:00,48.0,46.0,29.69,NNE,17,1.0,6.0,93,0.00,,,0.22,,2013-05-20 23:52:00,
2013-05-20 20:01:00,47.0,45.0,29.69,NW,319,1.0,9.0,93,0.00,,,0.22,,2013-05-21 00:01:00,
2013-05-20 20:11:00,47.0,45.0,29.69,NW,319,1.0,9.0,93,0.00,,,0.22,,2013-05-21 00:11:00,
2013-05-20 20:21:00,45.0,43.0,29.69,NW,314,4.0,9.0,93,0.00,,,0.22,,2013-05-21 00:21:00,
2013-05-20 20:32:00,45.0,44.0,29.70,NE,34,2.0,9.0,95,0.00,,,0.22,,2013-05-21 00:32:00,
2013-05-20 20:42:00,45.0,44.0,29.70,North,351,3.0,7.0,96,0.00,,,0.22,,2013-05-21 00:42:00,
2013-05-20 20:52:00,45.0,44.0,29.70,North,351,3.0,7.0,96,0.00,,,0.22,,2013-05-21 00:52:00,
2013-05-20 21:01:00,44.0,43.0,29.70,NNE,15,1.0,7.0,96,0.00,,,0.22,,2013-05-21 01:01:00,
2013-05-20 21:11:00,44.0,43.0,29.70,NNE,15,1.0,7.0,96,0.00,,,0.22,,2013-05-21 01:11:00,
2013-05-20 21:22:00,44.0,43.0,29.69,WNW,300,0.0,5.0,96,0.00,,,0.22,,2013-05-21 01:22:00,
2013-05-20 21:32:00,44.0,43.0,29.69,WNW,300,0.0,5.0,96,0.00,,,0.22,,2013-05-21 01:32:00,
2013-05-20 21:42:00,44.0,43.0,29.69,WNW,300,0.0,5.0,96,0.00,,,0.22,,2013-05-21 01:42:00,
2013-05-20 21:52:00,45.0,44.0,29.69,NW,304,1.0,4.0,96,0.00,,,0.22,,2013-05-21 01:52:00,
2013-05-20 22:02:00,45.0,44.0,29.68,North,350,0.0,4.0,96,0.00,,,0.22,,2013-05-21 02:02:00,
2013-05-20 22:11:00,45.0,44.0,29.68,North,350,0.0,4.0,96,0.00,,,0.22,,2013-05-21 02:11:00,
2013-05-20 22:21:00,44.0,43.0,29.69,North,350,0.0,3.0,96,0.00,,,0.22,,2013-05-21 02:21:00,
2013-05-20 22:32:00,45.0,44.0,29.70,North,350,0.0,3.0,96,0.00,,,0.22,,2013-05-21 02:32:00,
2013-05-20 22:42:00,45.0,44.0,29.70,North,350,0.0,3.0,96,0.00,,,0.22,,2013-05-21 02:42:00,
2013-05-20 22:52:00,45.0,44.0,29.70,North,350,0.0,3.0,97,0.00,,,0.22,,2013-05-21 02:52:00,
2013-05-20 23:02:00,46.0,45.0,29.70,North,350,0.0,2.0,97,0.00,,,0.22,,2013-05-21 03:02:00,
2013-05-20 23:11:00,46.0,45.0,29.70,North,350,0.0,2.0,97,0.00,,,0.22,,2013-05-21 03:11:00,
2013-05-20 23:21:00,46.0,45.0,29.69,North,350,0.0,1.0,97,0.00,,,0.22,,2013-05-21 03:21:00,
2013-05-20 23:33:00,47.0,46.0,29.71,NW,313,3.0,10.0,96,0.00,,,0.22,,2013-05-21 03:33:00,
2013-05-20 23:43:00,46.0,45.0,29.70,NW,318,1.0,12.0,96,0.00,,,0.22,,2013-05-21 03:43:00,
2013-05-20 23:53:00,46.0,45.0,29.70,NW,318,1.0,12.0,96,0.00,,,0.22,,2013-05-21 03:53:00,